Home   Weather   Aschaffenburg   Past weeks

Flag for Germany Past Weather in Aschaffenburg, Bavaria, Germany — Yesterday and Last 2 Weeks

Now
59 °F

Clear.


Feels Like: 58 °F
Forecast: 52 / 76 °F
Wind: 7 mph from East

Location: Frankfurt-M-Flughafen Airport

Current Time: May 26, 2017 at 1:50:28 am

Latest Report: May 26, 2017 at 1:20 am


Visibility: 10 mi

Pressure: 30.18 "Hg

Humidity: 77%

Dew Point: 52 °F

Location of AschaffenburgLocation

Past Weather in Aschaffenburg — Graph

°F

Aschaffenburg Temperature Yesterday

Maximum temperature yesterday: 75 °F (at 3:20 pm)
Minimum temperature yesterday: 54 °F (at 1:50 am)
Average temperature yesterday: 65 °F

High & Low Weather Summary for the Past Weeks

 TemperatureHumidityPressure
High84 °F (May 17, 3:50 pm)100% (May 12, 7:50 am)30.42 "Hg (May 12, 7:50 am)
Low41 °F (May 21, 4:50 am)29% (May 15, 6:20 pm)29.45 "Hg (May 11, 6:50 pm)
Average62 °F68%30.05 "Hg
* Reported May 11 12:20 am — May 26 12:50 am, Aschaffenburg. Weather by CustomWeather, © 2017

Note: Actual official high and low records may vary slightly from our data, if they occured in-between our weather recording intervals... More about our weather records

Advertising

Aschaffenburg Weather History for the Previous 24 Hours

Scroll right to see more
 ConditionsComfort  
Time TempWeatherWind HumidityBarometerVisibility
12:50 am
Fri, May 26
61 °FPassing clouds.7 mph72%30.18 "HgN/A
12:20 am63 °FClear.8 mph68%30.18 "Hg10 mi
11:50 pm
Thu, May 25
64 °FClear.9 mph64%30.18 "Hg10 mi
11:20 pm64 °FClear.8 mph64%30.18 "Hg10 mi
10:50 pm66 °FClear.14 mph60%30.18 "Hg10 mi
10:20 pm68 °FClear.13 mph56%30.15 "Hg10 mi
9:50 pm68 °FClear.14 mph56%30.15 "Hg10 mi
9:20 pm70 °FClear.13 mph50%30.15 "Hg10 mi
8:50 pm70 °FSunny.15 mph50%30.15 "Hg10 mi
8:20 pm72 °FSunny.17 mph47%30.15 "Hg10 mi
7:50 pm72 °FSunny.15 mph44%30.15 "Hg10 mi
7:20 pm73 °FSunny.14 mph38%30.15 "Hg10 mi
6:50 pm73 °FSunny.12 mph41%30.15 "Hg10 mi
6:20 pm73 °FPassing clouds.10 mph41%30.15 "HgN/A
5:50 pm75 °FPassing clouds.8 mph41%30.15 "HgN/A
5:20 pm75 °FSunny.5 mph44%30.15 "Hg10 mi
4:50 pm75 °FPassing clouds.6 mph41%30.15 "HgN/A
4:20 pm75 °FSunny.6 mph44%30.15 "Hg10 mi
3:50 pm75 °FPassing clouds.7 mph44%30.15 "HgN/A
3:20 pm75 °FSunny.7 mph44%30.18 "Hg10 mi
2:50 pm72 °FPassing clouds.7 mph50%30.18 "HgN/A
2:20 pm72 °FSunny.5 mph47%30.18 "Hg10 mi
1:50 pm73 °FPassing clouds.6 mph47%30.18 "HgN/A
1:20 pm72 °FPassing clouds.5 mph47%30.18 "HgN/A
12:50 pm70 °FPassing clouds.5 mph50%30.21 "HgN/A
12:20 pm70 °FPassing clouds.6 mph53%30.21 "HgN/A
11:50 am68 °FPassing clouds.6 mph53%30.21 "HgN/A
11:20 am66 °FScattered clouds.5 mph56%30.21 "HgN/A
10:50 am68 °FScattered clouds.7 mph56%30.21 "HgN/A
10:20 am66 °FScattered clouds.10 mph56%30.21 "HgN/A
9:50 am64 °FScattered clouds.10 mph64%30.21 "HgN/A
9:20 am63 °FPartly sunny.9 mph68%30.21 "HgN/A
8:20 am61 °FScattered clouds.6 mph72%30.21 "HgN/A
7:50 am61 °FPartly sunny.5 mph77%30.21 "HgN/A
7:20 am59 °FFog.6 mph88%30.21 "HgN/A
6:50 am57 °FFog.3 mph88%30.21 "HgN/A
6:20 am57 °FFog.5 mph94%30.18 "HgN/A
5:50 am57 °FFog.6 mph88%30.18 "HgN/A
5:20 am55 °FPassing clouds.5 mph94%30.18 "HgN/A
4:50 am55 °FFog.3 mph94%30.18 "HgN/A
4:20 am55 °FFog.2 mph94%30.18 "HgN/A
3:50 am54 °FFog.3 mph100%30.18 "HgN/A
3:20 am54 °FFog.2 mph100%30.18 "HgN/A
2:50 am55 °FPassing clouds.3 mph94%30.18 "HgN/A
2:20 am55 °FPassing clouds.2 mph94%30.18 "HgN/A
1:50 am54 °FPassing clouds.3 mph94%30.18 "HgN/A
1:20 am55 °FPassing clouds.1 mph94%30.18 "HgN/A
Weather by CustomWeather, © 2017

See weather overviewHow to use our weather pages